FW0887 Weather Reports


time (UTC)temp
C
wind
direction
speed
KPH
gust
KPH
rain 1hr
cm
rain 24hr
cm
rain mn
cm
humidity
%
barometer
mb
20260831213006 15 208 3.2 6.4 0.00 0.66 0.66 78 1018.6
20260831211506 16 208 0.0 6.4 0.00 0.66 0.66 76 1018.3
20260831210007 16 218 3.2 8.0 0.00 0.66 0.66 75 1018.4
20260831205953 16 203 3.2 6.4 0.00 0.66 0.66 74 1019.3
20260831204506 16 217 1.6 12.9 0.00 0.66 0.66 73 1018.2
20260831203002 17 221 6.4 14.5 0.00 0.66 0.66 72 1018.1
20260831201600 17 208 3.2 16.1 0.00 0.66 0.66 71 1017.8
20260831200059 17 254 4.8 16.1 0.00 0.66 0.66 69 1017.5
20260831195831 18 203 4.8 9.7 0.00 0.66 0.66 67 1018.5
20260831194651 17 250 1.6 22.5 0.00 0.66 0.66 67 1017.3
20260831193057 18 279 3.2 11.3 0.00 0.66 0.66 67 1017.2
20260831191555 18 209 1.6 12.9 0.00 0.66 0.66 67 1017.0
20260831190105 18 286 6.4 19.3 0.00 0.66 0.66 65 1016.9
20260831185903 18 270 4.8 12.9 0.00 0.66 0.66 66 1017.7
20260831184550 18 216 3.2 9.7 0.00 0.66 0.66 67 1016.2
20260831183051 18 213 6.4 14.5 0.00 0.66 0.66 68 1016.0
20260831181549 18 274 0.0 3.2 0.00 0.66 0.66 68 1015.9
20260831180048 18 274 0.0 4.8 0.00 0.66 0.66 66 1015.8
20260831175840 19 0.0 1.6 0.00 0.66 0.66 66 1016.7
20260831174551 18 247 1.6 14.5 0.00 0.66 0.66 66 1015.4
20260831173046 20 209 1.6 9.7 0.00 0.66 0.66 64 1015.3
20260831171548 20 205 4.8 22.5 0.00 0.66 0.66 62 1015.2
20260831170125 21 240 1.6 16.1 0.00 0.66 0.66 63 1015.2
20260831165804 21 225 3.2 9.7 0.00 0.66 0.66 62 1016.5
20260831164544 21 282 4.8 16.1 0.00 0.66 0.66 63 1015.2
20260831163045 21 212 4.8 19.3 0.00 0.66 0.66 63 1015.0
20260831161543 21 282 4.8 20.9 0.00 0.66 0.66 61 1015.0
20260831160043 21 213 4.8 11.3 0.00 0.66 0.66 62 1015.0
20260831155855 21 225 3.2 6.4 0.00 0.66 0.66 61 1016.2
20260831154549 21 298 6.4 22.5 0.00 0.66 0.66 60 1015.0
20260831153041 22 219 6.4 20.9 0.00 0.66 0.66 61 1014.8
20260831151541 22 265 1.6 22.5 0.00 0.66 0.66 65 1014.9
20260831150041 22 191 9.7 17.7 0.00 0.66 0.66 64 1015.0
20260831145803 23 203 12.9 16.1 0.00 0.66 0.66 62 1016.6
20260831144539 22 219 8.0 16.1 0.00 0.66 0.66 63 1015.3
20260831143039 22 222 9.7 19.3 0.00 0.66 0.66 62 1015.2
20260831141540 23 207 12.9 22.5 0.00 0.66 0.66 61 1015.3
20260831140136 22 198 4.8 14.5 0.00 0.66 0.66 65 1015.3
20260831135832 22 248 3.2 3.2 0.00 0.66 0.66 66 1016.8
20260831134536 22 277 6.4 16.1 0.00 0.66 0.66 65 1015.5
20260831133036 21 225 8.0 25.7 0.00 0.66 0.66 66 1015.6
20260831131533 21 207 3.2 25.7 0.00 0.66 0.66 65 1015.7
20260831130033 22 243 12.9 27.4 0.00 0.66 0.66 61 1015.6
20260831125804 23 203 8.0 17.7 0.00 0.66 0.66 63 1017.0
20260831124536 22 293 9.7 25.7 0.00 0.66 0.66 63 1015.6
20260831123030 22 259 4.8 24.1 0.00 0.66 0.66 66 1015.6
20260831121529 22 199 8.0 24.1 0.00 0.66 0.66 66 1015.5
20260831120031 22 200 4.8 33.8 0.00 0.66 0.66 68 1015.6
20260831115843 22 248 1.6 3.2 0.00 0.66 0.66 71 1016.9
20260831114523 21 205 11.3 27.4 0.00 0.66 0.66 69 1015.4
20260831113023 21 198 4.8 17.7 0.00 0.66 0.66 69 1015.6
20260831111528 20 226 3.2 24.1 0.00 0.66 0.66 75 1015.6
20260831110018 20 290 3.2 14.5 0.00 0.66 0.66 76 1015.5
20260831105813 20 270 3.2 4.8 0.00 0.66 0.66 78 1016.8
20260831104522 19 267 1.6 14.5 0.00 0.66 0.66 79 1015.5
20260831103035 19 252 1.6 6.4 0.00 0.66 0.66 77 1015.5
20260831101512 19 278 1.6 17.7 0.00 0.66 0.66 80 1015.6
20260831100011 18 217 6.4 19.3 0.00 0.66 0.66 82 1015.7
20260831095921 18 293 1.6 3.2 0.00 0.66 0.66 83 1017.2
20260831094515 18 216 3.2 16.1 0.00 0.66 0.66 83 1015.7
20260831093005 17 229 3.2 25.7 0.00 0.66 0.66 86 1015.7
20260831091504 17 276 1.6 17.7 0.00 0.66 0.66 89 1015.8
20260831090004 17 223 4.8 16.1 0.00 0.66 0.66 91 1015.8
20260831085848 17 203 1.6 4.8 0.00 0.66 0.66 92 1016.9
20260831084559 17 236 1.6 16.1 0.00 0.66 0.66 92 1015.6
20260831083058 17 240 1.6 12.9 0.00 0.66 0.66 93 1015.5
20260831081557 17 272 1.6 12.9 0.00 0.66 0.66 93 1015.2
20260831080105 17 225 4.8 17.7 0.00 0.66 0.66 93 1015.2
20260831075719 17 225 3.2 6.4 0.00 0.66 0.66 93 1016.6
20260831074552 16 269 3.2 14.5 0.00 0.66 0.66 94 1015.3
20260831073051 16 221 4.8 17.7 0.00 0.66 0.66 93 1015.1
20260831071549 16 218 3.2 8.0 0.00 0.66 0.66 93 1015.0
20260831070048 16 210 3.2 6.4 0.00 0.66 0.66 93 1014.9
20260831065750 16 225 4.8 6.4 0.00 0.66 0.66 93 1016.1
20260831064548 15 194 3.2 9.7 0.00 0.66 0.66 93 1014.8
20260831063048 15 208 1.6 6.4 0.00 0.66 0.66 93 1014.8
20260831061547 15 192 1.6 8.0 0.03 0.66 0.66 93 1014.6
20260831060046 15 209 3.2 6.4 0.05 0.66 0.66 93 1014.4
20260831055720 15 203 3.2 4.8 0.05 0.66 0.66 92 1015.8
20260831054545 15 213 0.0 3.2 0.05 0.66 0.66 92 1014.4
20260831053045 15 213 0.0 4.8 0.10 0.66 0.66 92 1014.3
20260831051546 15 213 0.0 3.2 0.10 0.64 0.64 92 1014.1
20260831050043 15 225 0.0 4.8 0.15 0.61 0.61 92 1014.1
20260831045817 15 180 1.6 6.4 0.23 0.61 0.61 92 1015.5
20260831044544 15 147 1.6 6.4 0.30 0.61 0.61 92 1013.9
20260831043042 15 184 1.6 8.0 0.56 0.56 0.56 92 1014.1
20260831041559 15 192 3.2 8.0 0.53 0.53 0.53 92 1014.1
20260831040042 15 194 3.2 6.4 0.48 0.48 0.48 91 1014.4
20260831035747 15 203 8.0 11.3 0.38 0.38 0.38 92 1016.1
20260831034542 15 211 9.7 27.4 0.33 0.33 0.33 92 1014.6
20260831033039 13 221 0.0 0.0 0.00 0.00 0.00 90 1012.5
20260831031543 13 221 0.0 0.0 0.00 0.00 0.00 89 1012.3
20260831030036 13 221 0.0 0.0 0.00 0.00 0.00 89 1012.6
20260831025657 13 0.0 0.0 0.00 0.00 0.00 89 1014.6
20260831024534 13 221 0.0 0.0 0.00 0.00 0.00 89 1013.0
20260831023033 13 221 0.0 0.0 0.00 0.00 0.00 88 1013.0
20260831021533 13 221 0.0 0.0 0.00 0.00 0.00 88 1012.8
20260831020031 13 221 0.0 0.0 0.00 0.00 0.00 88 1013.2
20260831015729 13 0.0 0.0 0.00 0.00 0.00 88 1015.3
20260831014528 13 221 0.0 0.0 0.00 0.00 0.00 88 1013.7
20260831013027 13 221 0.0 0.0 0.00 0.00 0.00 88 1013.7
20260831011526 13 221 0.0 0.0 0.00 0.00 0.00 87 1013.7
20260831010032 13 221 0.0 0.0 0.00 0.00 0.00 87 1014.1
20260831005658 14 0.0 0.0 0.00 0.00 0.00 87 1015.7
20260831004521 13 221 0.0 0.0 0.00 0.00 0.00 87 1014.1
20260831003021 13 221 0.0 0.0 0.00 0.00 0.00 87 1014.3
20260831001519 14 221 0.0 0.0 0.00 0.00 0.00 86 1014.4
20260831000023 14 221 0.0 0.0 0.00 0.00 0.00 85 1014.4
20260830235728 15 0.0 0.0 0.00 0.00 0.00 85 1016.0
20260830234529 14 221 0.0 0.0 0.00 0.00 0.00 85 1014.5
20260830233013 15 221 0.0 0.0 0.00 0.00 0.00 84 1014.5
20260830231511 15 221 0.0 0.0 0.00 0.00 0.00 84 1014.6
20260830230018 15 221 0.0 0.0 0.00 0.00 0.00 83 1014.7
20260830225755 15 0.0 0.0 0.00 0.00 0.00 83 1016.2
20260830224506 15 221 0.0 0.0 0.00 0.00 0.00 82 1014.6
20260830223004 16 221 0.0 0.0 0.00 0.00 0.00 82 1014.7
20260830221504 16 221 0.0 0.0 0.00 0.00 0.00 81 1014.6
20260830220100 16 221 0.0 0.0 0.00 0.00 0.00 79 1014.7
20260830215700 17 0.0 0.0 0.00 0.00 0.00 79 1016.3
20260830214600 17 221 0.0 0.0 0.00 0.00 0.00 78 1014.7